Milford, UT

8:44 AM MDT on June 28, 2017 (GMT -0600)
Milford Municipal

Weather History for KMLF - March, 2013

Change the Weather History Date:

Thursday, March 28, 2013

  Actual Average Record
Temperature  
Mean Temperature 50 °F -  
Max Temperature 68 °F 57 °F 81 °F (2015)
Min Temperature 32 °F 28 °F 19 °F (2008)
Degree Days  
Heating Degree Days 15    
Moisture  
Dew Point 23 °F    
Average Humidity 32    
Maximum Humidity 57    
Minimum Humidity 7    
Precipitation  
Precipitation 0.00 in - - ()
Sea Level Pressure  
Sea Level Pressure 29.95 in    
Wind  
Wind Speed 12 mph (SSW)    
Max Wind Speed 20 mph    
Max Gust Speed 26 mph    
Visibility 10 miles    
Events      
Averages and records for this station are not official NWS values.
T = Trace of Precipitation, MM = Missing Value Source: NWS Daily Summary

Daily Weather History Graph

Daily Weather History Graph

Search for Another Location

Airport or City:

Trip Planner

Search our weather history database for the weather conditions in past years. The results will help you decide how hot, cold, wet, or windy it might be!

Date:

Astronomy

Mar. 28, 2013 Rise Set
Actual Time 7:22 AM MDT 7:51 PM MDT
Civil Twilight 6:56 AM MDT 8:18 PM MDT
Nautical Twilight 6:24 AM MDT 8:49 PM MDT
Astronomical Twilight 5:52 AM MDT 9:21 PM MDT
Moon 9:46 PM MDT 7:54 AM MDT
Length of Visible Light 13h 22m
Length of Day
12h 29m
Full, 98% of the Moon is Illuminated
Mar 28
Full
Apr 2
Last Quarter
Apr 10
New
Apr 18
First Quarter
Apr 25
Full

Hourly Weather History & Observations

Time (MDT) Temp. Windchill Dew Point Humidity Pressure Visibility Wind Dir Wind Speed Gust Speed Precip Events Conditions
12:52 AM 43.0 °F 37.2 °F 21.0 °F 42% 29.91 in 10.0 mi SW 10.4 mph - N/A   Clear
1:52 AM 42.1 °F 35.7 °F 21.9 °F 45% 29.91 in 10.0 mi SW 11.5 mph - N/A   Clear
2:52 AM 41.0 °F 35.2 °F 23.0 °F 49% 29.90 in 10.0 mi SW 9.2 mph - N/A   Clear
3:52 AM 37.0 °F 31.6 °F 21.9 °F 54% 29.92 in 10.0 mi SSW 6.9 mph - N/A   Clear
4:52 AM 39.0 °F 31.8 °F 23.0 °F 53% 29.91 in 10.0 mi WSW 11.5 mph - N/A   Clear
5:52 AM 37.0 °F 31.0 °F 23.0 °F 57% 29.93 in 10.0 mi WSW 8.1 mph - N/A   Clear
6:52 AM 37.0 °F 32.4 °F 23.0 °F 57% 29.94 in 10.0 mi South 5.8 mph - N/A   Clear
7:52 AM 39.0 °F 31.0 °F 23.0 °F 53% 29.97 in 10.0 mi WSW 13.8 mph - N/A   Clear
8:52 AM 44.1 °F 38.6 °F 25.0 °F 47% 29.98 in 10.0 mi SSW 10.4 mph - N/A   Clear
9:52 AM 53.1 °F - 25.0 °F 34% 29.98 in 10.0 mi SSW 12.7 mph - N/A   Clear
10:52 AM 57.9 °F - 26.1 °F 30% 29.99 in 10.0 mi SSW 12.7 mph - N/A   Clear
11:52 AM 62.1 °F - 28.0 °F 28% 29.99 in 10.0 mi South 13.8 mph - N/A   Clear
12:52 PM 64.0 °F - 26.1 °F 24% 29.96 in 10.0 mi SSW 12.7 mph 23.0 mph N/A   Partly Cloudy
1:52 PM 64.9 °F - 24.1 °F 21% 29.94 in 10.0 mi SSW 16.1 mph 24.2 mph N/A   Partly Cloudy
2:52 PM 66.0 °F - 24.1 °F 20% 29.93 in 10.0 mi SW 16.1 mph 26.5 mph N/A   Clear
3:52 PM 66.9 °F - 21.9 °F 18% 29.91 in 10.0 mi SSW 15.0 mph 20.7 mph N/A   Mostly Cloudy
4:03 PM 68.0 °F - 21.2 °F 17% 30.00 in 10.0 mi SW 18.4 mph 24.2 mph N/A   Scattered Clouds
4:52 PM 64.9 °F - 19.0 °F 17% 29.90 in 10.0 mi SW 19.6 mph 24.2 mph N/A   Clear
5:52 PM 66.9 °F - 18.0 °F 15% 29.91 in 10.0 mi SSW 18.4 mph 24.2 mph N/A   Clear
6:52 PM 64.0 °F - 19.9 °F 18% 29.91 in 10.0 mi SW 17.3 mph - N/A   Clear
7:52 PM 57.0 °F - 21.9 °F 26% 29.94 in 10.0 mi SSW 10.4 mph - N/A   Clear
8:52 PM 53.1 °F - 21.0 °F 29% 29.97 in 10.0 mi SSW 12.7 mph - N/A   Partly Cloudy
9:52 PM 52.0 °F - 23.0 °F 32% 29.97 in 10.0 mi South 11.5 mph - N/A   Clear
10:52 PM 52.0 °F - 24.1 °F 34% 29.98 in 10.0 mi South 15.0 mph - N/A   Clear
11:52 PM 50.0 °F - 25.0 °F 38% 29.99 in 10.0 mi South 13.8 mph - N/A   Clear